Location: Unspecified
(0.0000°N, 0.0000°E)
Time: 04:59:08
(UTC+00:00)

Explorer 7 - Pass Details

Date: 10 October 2020
Orbit: 484 x 678 km, 50.3° (Epoch: 28 October)

Event Time Altitude Azimuth Distance (km) Brightness Sun altitude
Rises 17:15:51 0° 215° (SW) 2,540 10.9 7.7°
Reaches altitude 10° 17:18:01 10° 214° (SSW) 1,660 10.0 7.1°
Maximum altitude 17:21:44 79° 128° (SE) 499 6.7 6.2°
Drops below altitude 10° 17:25:33 10° 40° (NE) 1,693 8.9 5.3°
Sets 17:27:46 0° 39° (NE) 2,597 9.8 4.7°
